Printer-friendly version

IAU Minor Planet Center

Minor Planet Center

MPEC 2007-M10 : 2007 MF

The following Minor Planet Electronic Circular may be linked-to from your own Web pages, but must not otherwise be redistributed electronically.


Read MPEC 2007-M09 Read MPEC 2007-M11


M.P.E.C. 2007-M10                                Issued 2007 June 18, 15:35 UT

     The Minor Planet Electronic Circulars contain information on unusual
         minor planets and routine data on comets.  They are published
   on behalf of Commission 20 of the International Astronomical Union by the
          Minor Planet Center, Smithsonian Astrophysical Observatory,
                          Cambridge, MA 02138, U.S.A.

             Prepared using the Tamkin Foundation Computer Network

                              MPC@CFA.HARVARD.EDU
          URL http://www.cfa.harvard.edu/iau/mpc.html  ISSN 1523-6714

                                    2007 MF

Observations:
     K07M00F* C2007 06 16.61594 17 07 55.12 -06 42 17.7          18.0 V EM010E12
     K07M00F  C2007 06 16.61619 17 07 54.84 -06 42 30.9          17.9 V EM010E12
     K07M00F  C2007 06 16.61643 17 07 54.48 -06 42 44.1          17.2 V EM010E12
     K07M00F  C2007 06 16.61667 17 07 54.08 -06 42 56.7          17.9 V EM010E12
     K07M00F  C2007 06 16.61694 17 07 53.72 -06 43 10.9          18.6 V EM010E12
     K07M00F  C2007 06 16.62729 17 07 38.66 -06 52 25.9          18.3 R EM010E12
     K07M00F  C2007 06 16.63099 17 07 33.27 -06 55 44.4          18.2 R EM010E12
     K07M00F  C2007 06 16.63488 17 07 27.62 -06 59 13.5          18.2 R EM010E12
     K07M00F  C2007 06 16.68611 17 06 13.54 -07 45 10.5          18.5 R EM010E12
     K07M00F  C2007 06 16.68822 17 06 10.54 -07 47 03.9          18.6 R EM010E12
     K07M00F  C2007 06 16.72576 17 05 17.09 -08 20 54.6          18.1 R EM010E12
     K07M00F  C2007 06 16.72903 17 05 12.44 -08 23 51.1          18.0 R EM010E12
     K07M00F  C2007 06 17.25434 16 53 29.76 -16 44 25.3          17.3 V EM010703
     K07M00F  C2007 06 17.25461 16 53 29.29 -16 44 43.9          17.8 V EM010703
     K07M00F  C2007 06 17.25487 16 53 28.86 -16 44 58.8          17.7 V EM010703
     K07M00F  C2007 06 17.25515 16 53 28.35 -16 45 13.4          17.8 V EM010703
     K07M00F  C2007 06 17.27886 16 52 41.80 -17 08 25.0          18.9 R EM010734
     K07M00F  C2007 06 17.28043 16 52 39.21 -17 09 54.2          18.6 R EM010734
     K07M00F  C2007 06 17.28201 16 52 36.62 -17 11 23.6          18.8 R EM010734
     K07M00F  C2007 06 17.28359 16 52 34.00 -17 12 54.2          18.8 R EM010734
     K07M00F tC2007 06 17.34716 16 51 28.23 -18 02 10.7          17.1 R EM010474
     K07M00F tC2007 06 17.34797 16 51 26.96 -18 02 56.4          17.7 R EM010474
     K07M00F tC2007 06 17.34878 16 51 25.59 -18 03 45.5          17.2 R EM010474
     K07M00F tC2007 06 17.38791716 50 21.98 -18 41 32.3          17.6 R EM010474
     K07M00F tC2007 06 17.38848416 50 20.96 -18 42 07.9          17.3 R EM010474
     K07M00F tC2007 06 17.38917816 50 19.87 -18 42 48.6          17.6 R EM010474
     K07M00F tC2007 06 17.38975716 50 19.00 -18 43 18.9          17.3 R EM010474
     K07M00F  C2007 06 17.72773 16 40 41.62 -24 07 34.3                 EM010E12
     K07M00F  C2007 06 17.72873 16 40 40.02 -24 08 30.4          17.4 V EM010E12
     K07M00F 5C2007 06 18.23667 16 26 39.59 -32 12 26.0          18.6 R EM010673
     K07M00F 5C2007 06 18.25799 16 25 56.22 -32 31 50.2                 EM010673
     K07M00F 5C2007 06 18.29106 16 24 48.50 -33 01 37.1                 EM010673
     K07M00F  C2007 06 18.41510 16 21 10.31 -34 42 45.6          17.8 R EM010474
     K07M00F  C2007 06 18.41640 16 21 07.60 -34 43 55.5          18.1 R EM010474
     K07M00F  C2007 06 18.41758 16 21 05.18 -34 44 57.6          18.0 R EM010474
     K07M00F  C2007 06 18.42033 16 20 59.49 -34 47 24.7          18.1 R EM010474

Observer details:
474 Mount John Observatory, Lake Tekapo.  Observers A. C. Gilmore,
    P. M. Kilmartin.  0.6-m f/6.4 reflector + CCD.
673 Table Mountain Observatory, Wrightwood.  Observer J. Young.  0.61-m f/16
    Cassegrain + CCD.
703 Catalina Sky Survey.  Observer R. A. kowalski.  Measurers E. C. Beshore,
    A. Boattini, G. J. Garradd, A. R. Gibbs, A. D. Grauer, R. E. Hill,
    R. A. Kowalski, S. M. Larson, R. H. McNaught.  0.68-m Schmidt + CCD.
734 Farpoint Observatory.  Observer G. Hug.  0.7-m reflector + CCD.
E12 Siding Spring Survey.  Observers R. H. McNaught, G. J. Garradd.  Measurers
    E. C. Beshore, E. J. Christensen, G. J. Garradd, A. R. Gibbs, A. D. Grauer,
    R. E. Hill, R. A. Kowalski, S. M. Larson, R. H. McNaught.  0.5-m Uppsala
    Schmidt + CCD.

Orbital elements:
2007 MF                                                  Earth MOID = 0.0164 AU
Epoch 2007 Apr. 10.0 TT = JDT 2454200.5                 MPC
M 123.97393              (2000.0)            P               Q
n   1.00914316     Peri.  348.00835     +0.27025946     -0.91507927
a   0.9843908      Node    85.74264     +0.90629103     +0.13686614
e   0.0502808      Incl.   17.46623     +0.32495599     +0.37933835
P   0.98           H   26.1           G   0.15           U   6
Residuals in seconds of arc
070616 E12  0.6-  0.3-    070617 703 (0.3-  3.1+)   070617 474  0.3-  0.1-
070616 E12  0.7+  0.1-    070617 703  0.6-  0.0     070617 474  0.5+  0.6-
070616 E12  0.5+  0.4-    070617 703  0.5-  0.0     070617 474 (1.7+  2.7+)
070616 E12  0.2-  0.1-    070617 703  1.2-  1.5+    070617 E12  0.8-  0.2+
070616 E12  0.3+  0.1+    070617 734  0.6-  1.2-    070617 E12  0.9+  0.2+
070616 E12  0.3+  0.0     070617 734  0.5-  0.8-    070618 673 (0.3+  2.4+)
070616 E12  0.1+  0.0     070617 734  0.2-  0.0     070618 673  0.4+  0.2+
070616 E12  0.2+  0.3-    070617 734  0.3-  0.4-    070618 673  0.8+  0.1+
070616 E12  0.1+  0.2+    070617 474  0.5+  1.2+    070618 474  0.0   0.0
070616 E12  0.5+  0.7+    070617 474 (0.9+  2.5+)   070618 474  0.2-  0.6-
070616 E12  0.4+  0.4-    070617 474  0.1-  0.3+    070618 474  0.0   0.2+
070616 E12  0.2-  0.2+    070617 474 (1.0+  2.7+)   070618 474  0.1+  0.3-

Ephemeris:
2007 MF                  a,e,i = 0.98, 0.05, 17                  q = 0.9349
Date    TT    R. A. (2000) Decl.     Delta      r     Elong.  Phase     V
2007 06 19    16 01.43   -42 48.0    0.0187   1.032   150.7    28.8    18.8
2007 06 20    15 22.43   -53 50.6    0.0212   1.032   138.7    40.6    19.4
2007 06 21    14 37.12   -61 23.4    0.0245   1.032   129.2    49.7    20.0
2007 06 22    13 48.07   -66 06.2    0.0284   1.032   122.1    56.5    20.5
2007 06 23    12 59.46   -68 47.2    0.0326   1.031   116.7    61.7    20.9
2007 06 24    12 15.26   -70 08.3    0.0371   1.031   112.5    65.6    21.3
2007 06 25    11 37.62   -70 40.7    0.0416   1.031   109.2    68.7    21.7
2007 06 26    11 06.74   -70 45.3    0.0463   1.031   106.4    71.1    22.0
2007 06 27    10 41.81   -70 35.2    0.0510   1.030   104.2    73.0    22.3
2007 06 28    10 21.70   -70 17.6    0.0558   1.030   102.3    74.7    22.5
2007 06 29    10 05.37   -69 56.9    0.0606   1.030   100.7    76.0    22.7

Kyle E. Smalley              (C) Copyright 2007 MPC           M.P.E.C. 2007-M10

Read MPEC 2007-M09 Read MPEC 2007-M11


Our Web policy. Index to the CBAT/MPC/ICQ pages.


Valid HTML 4.01!